THORAD AGENA D DEB

Satellite information

Favourite Embed

Satellite Type and Status

DEBRISIN ORBIT

Key statistics

Satellite THORAD AGENA D DEB at a glance.

Uptime

20242

Days in orbit

Revolutions

≈ 14.4

Per day

Orbit

SSO

Sun Synchronous Orbit

Inclination

100.0

Latest

Satellite identification and parameters

Extended collection of information and parameters for THORAD AGENA D DEB.

Object identification

Identified? True

Debris? True

Object name: THORAD AGENA D DEB

International designator: 1970-025LA

Object number (NORAD): 5422

Object ID (CCSDS): 5422

Country: UNITED STATES OF AMERICA (US)

Current information (Y/N): Y

RCS size: SMALL

Orbital parameters

Period: 99.816 minutes

Inclination: 99.9978 deg

SMA: 7127.891 km

Apoapsis: 803.172 km

Periapsis: 696.34 km

RAAN: 19.2207 deg

Eccentricy: 0.00749397

Argument of periapsis: 107.7672 deg

Mean anomaly: 253.1708 deg

Mean motion: 14.4265065 rev/day

Mean motion (dot): 0.00008545 rev/day2

B* drag term: 0.0024987934 1/REarth

Two-line elements (TLE)

Creation date: Sept. 8, 2025, 3:16 a.m.

Reference frame: TEME

Reference center: EARTH

Epoch: Sept. 7, 2025, 8:04 a.m. UTC

TLE line 0: 0 THORAD AGENA D DEB

TLE line 1: 1 05422U 70025LA 25250.33649385 .00008545 00000-0 24988-2 0 9997

TLE line 2: 2 05422 99.9978 19.2207 0074940 107.7672 253.1708 14.42650650816128

Live tracking on map

Real-time ground track for satellite THORAD AGENA D DEB.

In-orbit conjunctions

A list of the most updated potential collisions computed for object THORAD AGENA D DEB.

Target Orbit TCA Probability of collision Miss distance Type
CZ-6A DEB LEO 2025-02-16 22:34:16 0.0001058131 338.0 (m) DEBRIS
COSMOS 1275 DEB LEO 2024-11-09 18:35:35 0.0003894069 271.0 (m) DEBRIS

Associated space launch

Meteorological research and development satellite

THORAD AGENA D DEB was lifted into orbit during the mission ‘Thorad SLV-2G Agena D | Nimbus 4’, on board a Thorad SLV-2G Agena D space rocket.

The launch took place on April 8, 1970, 8:17 a.m. from Space Launch Complex 2E.

For more information about the launch, click the button.

Launch to space Thorad SLV-2G Agena D | Nimbus 4
Thorad SLV-2G Agena D | Nimbus 4

Agency: N/A

Status: Launch Successful

Launch date: April 8, 1970, 8:17 a.m. UTC

Rocket: Thorad SLV-2G Agena D

Launch pad: Space Launch Complex 2E

Location: Vandenberg SFB, CA, USA

...

Latest news about this satellite

There are no fresh news available about this satellite. Check back as we update our databases every day.


Newsletter sign-up

Weekly statistics, charts and insights to help you stay on top of the space industry.